When you browse on this site, cookies collect data to enhance your experience and personalize the content and advertising you see.
Visit our Privacy Policy to learn more. By continuing to use the site, you agree to this use of cookies and data.
  • In Latvia
  • List of Countries
  • For 7 days
  • Water Temperature
  • Weather Map
  • Weather Widgets
  • user-avatar
    Login

    Hourly Weather Ali Bayramli

    Today, 2 April, Thursday

    Time Temperature Precipitation Wind Pressure Humidity
    00:00 +13°C° 0.1 mm 5 mps 755 mmHg 72%
    01:00 +13°C° 0 mm 5 mps 754 mmHg 73%
    02:00 +12°C° 0 mm 5 mps 754 mmHg 74%
    03:00 +12°C° 0 mm 5 mps 754 mmHg 74%
    04:00 +12°C° 0 mm 5 mps 753 mmHg 76%
    05:00 +12°C° 0 mm 5 mps 753 mmHg 77%
    06:00 +10°C° 0 mm 5 mps 753 mmHg 78%
    07:00 +13°C° 0 mm 5 mps 753 mmHg 73%
    08:00 +14°C° 0 mm 6 mps 753 mmHg 68%
    09:00 +15°C° 0 mm 6 mps 754 mmHg 67%
    10:00 +15°C° 0 mm 5 mps 754 mmHg 64%
    11:00 +16°C° 0 mm 5 mps 754 mmHg 62%
    12:00 +17°C° 0 mm 4 mps 754 mmHg 60%
    13:00 +16°C° 0 mm 5 mps 754 mmHg 62%
    14:00 +15°C° 0 mm 5 mps 755 mmHg 64%
    15:00 +15°C° 0 mm 6 mps 755 mmHg 66%
    16:00 +15°C° 0 mm 5 mps 756 mmHg 66%
    17:00 +14°C° 0 mm 4 mps 756 mmHg 66%
    18:00 +14°C° 0 mm 3 mps 756 mmHg 66%
    19:00 +13°C° 0 mm 3 mps 757 mmHg 63%
    20:00 +13°C° 0 mm 4 mps 758 mmHg 61%
    21:00 +13°C° 0 mm 4 mps 759 mmHg 58%
    22:00 +12°C° 0 mm 4 mps 759 mmHg 59%
    23:00 +12°C° 0 mm 3 mps 759 mmHg 59%

    Tomorrow, 3 April, Friday

    Time Temperature Precipitation Wind Pressure Humidity
    00:00 +12°C° 0 mm 3 mps 759 mmHg 60%
    01:00 +11°C° 0 mm 3 mps 759 mmHg 62%
    02:00 +12°C° 0 mm 2 mps 759 mmHg 64%
    03:00 +10°C° 0 mm 2 mps 759 mmHg 66%
    04:00 +10°C° 0 mm 2 mps 759 mmHg 70%
    05:00 +10°C° 0 mm 2 mps 759 mmHg 73%
    06:00 +9°C° 0 mm 3 mps 759 mmHg 77%
    07:00 +10°C° 0 mm 3 mps 759 mmHg 71%
    08:00 +12°C° 0 mm 4 mps 760 mmHg 65%
    09:00 +13°C° 0 mm 4 mps 760 mmHg 59%
    10:00 +14°C° 0 mm 5 mps 760 mmHg 57%
    11:00 +14°C° 0 mm 5 mps 760 mmHg 56%
    12:00 +15°C° 0 mm 5 mps 759 mmHg 55%
    13:00 +15°C° 0 mm 5 mps 759 mmHg 55%
    14:00 +15°C° 0 mm 5 mps 759 mmHg 56%
    15:00 +15°C° 0 mm 5 mps 759 mmHg 56%
    16:00 +14°C° 0 mm 5 mps 759 mmHg 61%
    17:00 +13°C° 0 mm 5 mps 759 mmHg 65%
    18:00 +10°C° 0 mm 5 mps 759 mmHg 70%
    19:00 +10°C° 0 mm 5 mps 759 mmHg 72%
    20:00 +11°C° 0 mm 4 mps 760 mmHg 74%
    21:00 +10°C° 0 mm 4 mps 760 mmHg 76%
    22:00 +10°C° 0 mm 4 mps 760 mmHg 76%
    23:00 +10°C° 0 mm 3 mps 760 mmHg 76%

    Day after tomorrow, 4 April, Saturday

    Time Temperature Precipitation Wind Pressure Humidity
    00:00 +10°C° 0 mm 3 mps 760 mmHg 77%
    01:00 +10°C° 0 mm 3 mps 760 mmHg 76%
    02:00 +10°C° 0 mm 3 mps 759 mmHg 75%
    03:00 +11°C° 0 mm 3 mps 759 mmHg 75%
    04:00 +10°C° 0 mm 3 mps 760 mmHg 76%
    05:00 +10°C° 0 mm 4 mps 760 mmHg 77%
    06:00 +10°C° 0 mm 4 mps 760 mmHg 78%
    07:00 +10°C° 0 mm 4 mps 761 mmHg 79%
    08:00 +11°C° 0 mm 4 mps 761 mmHg 79%
    09:00 +11°C° 0 mm 4 mps 761 mmHg 79%
    10:00 +11°C° 0 mm 4 mps 762 mmHg 77%
    11:00 +10°C° 0 mm 5 mps 762 mmHg 75%
    12:00 +10°C° 0 mm 5 mps 762 mmHg 73%
    13:00 +12°C° 0 mm 4 mps 762 mmHg 71%
    14:00 +12°C° 0 mm 4 mps 762 mmHg 70%
    15:00 +12°C° 0 mm 4 mps 762 mmHg 68%
    16:00 +12°C° 0 mm 3 mps 763 mmHg 70%
    17:00 +11°C° 0 mm 3 mps 763 mmHg 73%
    18:00 +12°C° 0 mm 2 mps 764 mmHg 75%
    19:00 +12°C° 0.1 mm 2 mps 764 mmHg 77%
    20:00 +12°C° 0.1 mm 1 mps 764 mmHg 79%
    21:00 +11°C° 0.1 mm 1 mps 765 mmHg 82%
    22:00 +11°C° 0.1 mm 1 mps 765 mmHg 83%
    23:00 +11°C° 0.1 mm 1 mps 765 mmHg 85%

    5 April, Sunday

    Time Temperature Precipitation Wind Pressure Humidity
    00:00 +11°C° 0.1 mm 1 mps 765 mmHg 87%
    01:00 +11°C° 0 mm 1 mps 765 mmHg 87%
    02:00 +11°C° 0 mm 1 mps 765 mmHg 87%
    03:00 +11°C° 0 mm 1 mps 765 mmHg 87%
    04:00 +10°C° 0 mm 1 mps 765 mmHg 88%
    05:00 +10°C° 0 mm 1 mps 765 mmHg 88%
    06:00 +9°C° 0 mm 0 mps 766 mmHg 89%
    07:00 +11°C° 0 mm 1 mps 765 mmHg 82%
    08:00 +12°C° 0 mm 1 mps 765 mmHg 75%
    09:00 +14°C° 0 mm 1 mps 765 mmHg 68%
    10:00 +15°C° 0 mm 2 mps 765 mmHg 62%
    11:00 +17°C° 0 mm 2 mps 764 mmHg 57%
    12:00 +18°C° 0 mm 2 mps 764 mmHg 51%
    13:00 +19°C° 0 mm 3 mps 763 mmHg 48%
    14:00 +20°C° 0 mm 3 mps 763 mmHg 45%
    15:00 +21°C° 0 mm 3 mps 762 mmHg 42%
    16:00 +19°C° 0 mm 4 mps 762 mmHg 48%
    17:00 +17°C° 0 mm 5 mps 762 mmHg 54%
    18:00 +15°C° 0 mm 6 mps 762 mmHg 61%
    19:00 +14°C° 0 mm 5 mps 762 mmHg 65%
    20:00 +13°C° 0 mm 4 mps 762 mmHg 70%
    21:00 +12°C° 0 mm 3 mps 763 mmHg 75%
    22:00 +12°C° 0 mm 3 mps 762 mmHg 78%
    23:00 +12°C° 0 mm 2 mps 762 mmHg 81%

    6 April, Monday

    Time Temperature Precipitation Wind Pressure Humidity
    00:00 +12°C° 0 mm 1 mps 762 mmHg 84%
    01:00 +12°C° 0 mm 1 mps 761 mmHg 85%
    02:00 +12°C° 0 mm 2 mps 761 mmHg 85%
    03:00 +10°C° 0 mm 2 mps 761 mmHg 86%
    04:00 +12°C° 0 mm 2 mps 761 mmHg 85%
    05:00 +12°C° 0 mm 2 mps 761 mmHg 85%
    06:00 +12°C° 0 mm 2 mps 761 mmHg 84%
    07:00 +13°C° 0 mm 4 mps 762 mmHg 75%
    08:00 +14°C° 0 mm 5 mps 762 mmHg 66%
    09:00 +16°C° 0 mm 7 mps 762 mmHg 58%
    10:00 +16°C° 0 mm 9 mps 763 mmHg 55%
    11:00 +16°C° 0 mm 10 mps 763 mmHg 51%
    12:00 +17°C° 0 mm 12 mps 763 mmHg 48%
    13:00 +14°C° 0.1 mm 13 mps 763 mmHg 52%
    14:00 +10°C° 0.1 mm 14 mps 763 mmHg 57%
    15:00 +7°C° 0.1 mm 16 mps 764 mmHg 61%
    16:00 +6°C° 1.4 mm 16 mps 764 mmHg 65%
    17:00 +5°C° 1.4 mm 16 mps 764 mmHg 70%
    18:00 +4°C° 1.4 mm 16 mps 765 mmHg 74%
    19:00 +4°C° 2.3 mm 16 mps 766 mmHg 72%
    20:00 +2°C° 2.3 mm 16 mps 766 mmHg 70%
    21:00 +2°C° 2.3 mm 16 mps 767 mmHg 68%
    22:00 +2°C° 0.7 mm 15 mps 768 mmHg 65%
    23:00 +4°C° 0.7 mm 14 mps 768 mmHg 62%

    7 April, Tuesday

    Time Temperature Precipitation Wind Pressure Humidity
    00:00 +4°C° 0.7 mm 12 mps 769 mmHg 58%
    01:00 +3°C° 0.8 mm 11 mps 769 mmHg 61%
    02:00 +3°C° 0.8 mm 10 mps 769 mmHg 64%
    03:00 +2°C° 0.8 mm 8 mps 770 mmHg 67%
    04:00 +3°C° 0.4 mm 7 mps 770 mmHg 66%
    05:00 +3°C° 0.4 mm 6 mps 771 mmHg 66%
    06:00 +3°C° 0.4 mm 5 mps 772 mmHg 66%
    07:00 +5°C° 0.1 mm 5 mps 772 mmHg 63%
    08:00 +5°C° 0.1 mm 5 mps 773 mmHg 59%
    09:00 +5°C° 0.1 mm 6 mps 773 mmHg 56%
    10:00 +5°C° 0 mm 6 mps 774 mmHg 54%
    11:00 +6°C° 0 mm 7 mps 774 mmHg 53%
    12:00 +6°C° 0 mm 7 mps 774 mmHg 52%
    13:00 +8°C° 0 mm 6 mps 774 mmHg 51%
    14:00 +8°C° 0 mm 6 mps 774 mmHg 51%
    15:00 +8°C° 0 mm 5 mps 774 mmHg 51%
    16:00 +7°C° 0 mm 5 mps 774 mmHg 53%
    17:00 +7°C° 0 mm 4 mps 774 mmHg 55%
    18:00 +6°C° 0 mm 4 mps 774 mmHg 58%
    19:00 +7°C° 0 mm 3 mps 775 mmHg 59%
    20:00 +5°C° 0 mm 3 mps 775 mmHg 59%
    21:00 +5°C° 0 mm 3 mps 776 mmHg 60%
    22:00 +5°C° 0 mm 2 mps 775 mmHg 61%
    23:00 +5°C° 0 mm 2 mps 775 mmHg 62%
    Show more